sat.trackr.live / text

‹ back to catalog

YAOGAN-26

NORAD 40362 · 2014-088A

PAYLOAD ACTIVE UNKNOWN

§ Identity

Operator
Country
PRC
Launch date
2014-12-27
Launch site
TAISC
Launch vehicle
Mass (kg)
RCS (m²)
4.77

Purposes: earth_obs

External: N2YO · Heavens-Above · Gunter

§ Orbital elements

Epoch: 2026-09-12T03:36:02.143584Z

Period
92.87 min
Inclination
97.0687°
Eccentricity
0.0006043
Mean motion
15.50633961 rev/d
Perigee alt
410.8 km
Apogee alt
419.0 km
Semi-major
6,793.0 km
B*
2.9992e-4
RAAN
253.5482°
Arg perigee
88.4446°
Mean anomaly
271.7499°
Rev number
65,116

§ Raw data

YAOGAN-261 40362U 14088A   26255.15002481  .00017122  00000+0  29992-3 0  99932 40362  97.0687 253.5482 0006043  88.4446 271.7499 15.50633961651167

JSON: /api/v1/satellites/40362 · /tle

For live sub-satellite position, see the globe view (requires WebGL).

§ Visibility from observer

Set your observer location to see the next 7 days of passes ≥ 10°. The values pass through the URL so the page stays shareable.

No JS? Fill the form by hand. The geolocation button needs JavaScript.